Wetterdaten: Montag, 09.03.2015
Datum Zeit Temp. A. Feuchte A. Luftdruck Regen Wind Richtung Richtung Sonnenschein ET UV Solar Taupunkt Windchill Windben Empfang
09.03.2015 00:00 2,3 C 49 % 1024,8 hPa 0,0 l/m 0,0 km/h (0 Bft) SW 214 0 min 0,000 mm 0,0 UV-I 0 W/m -7,3 C 2,3 C 0,0 km/h (0 Bft) 0,00 %
09.03.2015 00:15 1,5 C 55 % 1024,8 hPa 0,0 l/m 0,0 km/h (0 Bft) S 172 0 min 0,000 mm 0,0 UV-I 0 W/m -6,5 C 1,5 C 0,0 km/h (0 Bft) 0,00 %
09.03.2015 00:30 1,9 C 50 % 1024,8 hPa 0,0 l/m 0,0 km/h (0 Bft) S 173 0 min 0,000 mm 0,0 UV-I 0 W/m -7,4 C 1,9 C 0,0 km/h (0 Bft) 0,00 %
09.03.2015 00:45 1,4 C 54 % 1024,8 hPa 0,0 l/m 0,0 km/h (0 Bft) S 190 0 min 0,000 mm 0,0 UV-I 0 W/m -6,9 C 1,4 C 0,0 km/h (0 Bft) 0,00 %
09.03.2015 01:00 0,5 C 56 % 1024,9 hPa 0,0 l/m 0,0 km/h (0 Bft) S 178 0 min 0,000 mm 0,0 UV-I 0 W/m -7,2 C 0,5 C 0,0 km/h (0 Bft) 0,00 %
09.03.2015 01:15 0,2 C 60 % 1024,9 hPa 0,0 l/m 0,0 km/h (0 Bft) S 187 0 min 0,000 mm 0,0 UV-I 0 W/m -6,6 C 0,2 C 0,0 km/h (0 Bft) 0,00 %
09.03.2015 01:30 0,5 C 56 % 1024,8 hPa 0,0 l/m 0,4 km/h (0 Bft) O-SO 120 0 min 0,000 mm 0,0 UV-I 0 W/m -7,2 C 0,5 C 4,0 km/h (1 Bft) 0,00 %
09.03.2015 01:45 0,6 C 55 % 1024,7 hPa 0,0 l/m 0,0 km/h (0 Bft) S 181 0 min 0,000 mm 0,0 UV-I 0 W/m -7,4 C 0,6 C 0,0 km/h (0 Bft) 0,00 %
09.03.2015 02:00 0,1 C 59 % 1024,8 hPa 0,0 l/m 0,0 km/h (0 Bft) SW 214 0 min 0,000 mm 0,0 UV-I 0 W/m -6,9 C 0,1 C 0,0 km/h (0 Bft) 0,00 %
09.03.2015 02:15 -0,3 C 60 % 1024,7 hPa 0,0 l/m 0,0 km/h (0 Bft) S-SW 193 0 min 0,000 mm 0,0 UV-I 0 W/m -7,1 C -0,3 C 0,0 km/h (0 Bft) 0,00 %
09.03.2015 02:30 -0,9 C 65 % 1024,8 hPa 0,0 l/m 0,0 km/h (0 Bft) S 182 0 min 0,000 mm 0,0 UV-I 0 W/m -6,6 C -0,9 C 0,0 km/h (0 Bft) 0,00 %
09.03.2015 02:45 -1,0 C 63 % 1024,6 hPa 0,0 l/m 0,0 km/h (0 Bft) S-SW 193 0 min 0,000 mm 0,0 UV-I 0 W/m -7,1 C -1,0 C 0,0 km/h (0 Bft) 0,00 %
09.03.2015 03:00 -1,2 C 66 % 1024,7 hPa 0,0 l/m 0,0 km/h (0 Bft) S-SW 210 0 min 0,000 mm 0,0 UV-I 0 W/m -6,7 C -1,2 C 0,0 km/h (0 Bft) 0,00 %
09.03.2015 03:15 -1,5 C 68 % 1024,9 hPa 0,0 l/m 0,0 km/h (0 Bft) S-SW 192 0 min 0,000 mm 0,0 UV-I 0 W/m -6,6 C -1,5 C 0,0 km/h (0 Bft) 0,00 %
09.03.2015 03:30 -1,5 C 67 % 1024,8 hPa 0,0 l/m 0,0 km/h (0 Bft) S-SW 201 0 min 0,000 mm 0,0 UV-I 0 W/m -6,8 C -1,5 C 0,0 km/h (0 Bft) 0,00 %
09.03.2015 03:45 -2,0 C 69 % 1024,8 hPa 0,0 l/m 0,0 km/h (0 Bft) S 179 0 min 0,000 mm 0,0 UV-I 0 W/m -6,9 C -2,0 C 0,0 km/h (0 Bft) 0,00 %
09.03.2015 04:00 -1,5 C 64 % 1024,8 hPa 0,0 l/m 0,0 km/h (0 Bft) SW 224 0 min 0,000 mm 0,0 UV-I 0 W/m -7,4 C -1,5 C 0,0 km/h (0 Bft) 0,00 %
09.03.2015 04:15 -2,0 C 69 % 1025,1 hPa 0,0 l/m 0,0 km/h (0 Bft) S 178 0 min 0,000 mm 0,0 UV-I 0 W/m -6,9 C -2,0 C 0,0 km/h (0 Bft) 0,00 %
09.03.2015 04:30 -2,1 C 65 % 1025,4 hPa 0,0 l/m 0,0 km/h (0 Bft) S 191 0 min 0,000 mm 0,0 UV-I 0 W/m -7,8 C -2,1 C 0,0 km/h (0 Bft) 0,00 %
09.03.2015 04:45 -2,4 C 69 % 1025,4 hPa 0,0 l/m 0,0 km/h (0 Bft) S 191 0 min 0,000 mm 0,0 UV-I 0 W/m -7,3 C -2,4 C 0,0 km/h (0 Bft) 0,00 %
09.03.2015 05:00 -2,7 C 71 % 1025,4 hPa 0,0 l/m 0,0 km/h (0 Bft) S 191 0 min 0,000 mm 0,0 UV-I 0 W/m -7,2 C -2,7 C 0,0 km/h (0 Bft) 0,00 %
09.03.2015 05:15 -3,0 C 73 % 1025,5 hPa 0,0 l/m 0,0 km/h (0 Bft) S-SW 192 0 min 0,000 mm 0,0 UV-I 0 W/m -7,1 C -3,0 C 0,0 km/h (0 Bft) 0,00 %
09.03.2015 05:30 -3,0 C 74 % 1025,6 hPa 0,0 l/m 0,0 km/h (0 Bft) S-SW 192 0 min 0,000 mm 0,0 UV-I 0 W/m -7,0 C -3,0 C 0,0 km/h (0 Bft) 0,00 %
09.03.2015 05:45 -2,8 C 75 % 1026,0 hPa 0,0 l/m 0,0 km/h (0 Bft) S-SW 192 0 min 0,000 mm 0,0 UV-I 0 W/m -6,6 C -2,8 C 0,0 km/h (0 Bft) 0,00 %
09.03.2015 06:00 -3,0 C 76 % 1026,3 hPa 0,0 l/m 0,0 km/h (0 Bft) S-SW 193 0 min 0,000 mm 0,0 UV-I 0 W/m -6,6 C -3,0 C 0,0 km/h (0 Bft) 0,00 %
09.03.2015 06:15 -2,9 C 78 % 1026,0 hPa 0,0 l/m 0,0 km/h (0 Bft) S 188 0 min 0,000 mm 0,0 UV-I 0 W/m -6,2 C -2,9 C 0,0 km/h (0 Bft) 0,00 %
09.03.2015 06:30 -2,7 C 77 % 1026,1 hPa 0,0 l/m 0,0 km/h (0 Bft) S-SW 201 0 min 0,000 mm 0,0 UV-I 0 W/m -6,2 C -2,7 C 0,0 km/h (0 Bft) 0,00 %
09.03.2015 06:45 -2,7 C 77 % 1026,4 hPa 0,0 l/m 0,0 km/h (0 Bft) S 187 15 min 0,000 mm 0,0 UV-I 34 W/m -6,2 C -2,7 C 0,0 km/h (0 Bft) 0,00 %
09.03.2015 07:00 -2,3 C 81 % 1026,6 hPa 0,0 l/m 0,0 km/h (0 Bft) S-SW 198 15 min 0,000 mm 0,0 UV-I 90 W/m -5,1 C -2,3 C 0,0 km/h (0 Bft) 0,00 %
09.03.2015 07:15 -1,3 C 78 % 1026,6 hPa 0,0 l/m 0,0 km/h (0 Bft) S-SW 198 15 min 0,000 mm 1,0 UV-I 114 W/m -4,6 C -1,3 C 0,0 km/h (0 Bft) 0,00 %
09.03.2015 07:30 -0,4 C 72 % 1026,4 hPa 0,0 l/m 0,0 km/h (0 Bft) SW 223 15 min 0,000 mm 1,0 UV-I 167 W/m -4,8 C -0,4 C 0,0 km/h (0 Bft) 0,00 %
09.03.2015 07:45 0,8 C 66 % 1026,3 hPa 0,0 l/m 0,0 km/h (0 Bft) SW 227 15 min 0,000 mm 1,0 UV-I 211 W/m -4,8 C 0,8 C 0,0 km/h (0 Bft) 0,00 %
09.03.2015 08:00 1,7 C 62 % 1026,4 hPa 0,0 l/m 0,0 km/h (0 Bft) S-SW 209 15 min 0,000 mm 1,0 UV-I 222 W/m -4,8 C 1,7 C 0,0 km/h (0 Bft) 0,00 %
09.03.2015 08:15 1,4 C 63 % 1026,7 hPa 0,0 l/m 0,0 km/h (0 Bft) SW 216 15 min 0,000 mm 1,0 UV-I 211 W/m -4,9 C 1,4 C 0,0 km/h (0 Bft) 0,00 %
09.03.2015 08:30 1,9 C 61 % 1026,9 hPa 0,0 l/m 0,0 km/h (0 Bft) SW 226 15 min 0,000 mm 1,0 UV-I 222 W/m -4,8 C 1,9 C 0,0 km/h (0 Bft) 0,00 %
09.03.2015 08:45 1,8 C 62 % 1026,6 hPa 0,0 l/m 1,8 km/h (1 Bft) O-NO 77 15 min 0,000 mm 1,0 UV-I 233 W/m -4,7 C 1,8 C 4,0 km/h (1 Bft) 0,00 %
09.03.2015 09:00 1,5 C 63 % 1026,9 hPa 0,0 l/m 0,0 km/h (0 Bft) S-SW 210 0 min 0,000 mm 1,0 UV-I 210 W/m -4,8 C 1,5 C 0,0 km/h (0 Bft) 0,00 %
09.03.2015 09:15 1,5 C 67 % 1027,5 hPa 0,0 l/m 0,0 km/h (0 Bft) SW 220 0 min 0,000 mm 1,0 UV-I 107 W/m -3,9 C 1,5 C 0,0 km/h (0 Bft) 0,00 %
09.03.2015 09:30 1,6 C 63 % 1027,5 hPa 0,0 l/m 0,0 km/h (0 Bft) S-SW 205 0 min 0,000 mm 1,0 UV-I 110 W/m -4,7 C 1,6 C 0,0 km/h (0 Bft) 0,00 %
09.03.2015 09:45 1,7 C 62 % 1027,6 hPa 0,0 l/m 0,0 km/h (0 Bft) S 188 0 min 0,000 mm 1,0 UV-I 122 W/m -4,8 C 1,7 C 0,0 km/h (0 Bft) 0,00 %
09.03.2015 10:00 2,2 C 59 % 1027,5 hPa 0,0 l/m 0,0 km/h (0 Bft) SW 216 0 min 0,000 mm 1,0 UV-I 138 W/m -5,0 C 2,2 C 0,0 km/h (0 Bft) 0,00 %
09.03.2015 10:15 2,3 C 61 % 1027,2 hPa 0,0 l/m 0,4 km/h (0 Bft) O-SO 110 0 min 0,000 mm 2,0 UV-I 150 W/m -4,4 C 2,3 C 4,0 km/h (1 Bft) 0,00 %
09.03.2015 10:30 2,8 C 63 % 1027,3 hPa 0,0 l/m 0,4 km/h (0 Bft) SO 124 0 min 0,000 mm 2,0 UV-I 177 W/m -3,5 C 2,8 C 4,0 km/h (1 Bft) 0,00 %
09.03.2015 10:45 3,4 C 61 % 1027,3 hPa 0,0 l/m 0,0 km/h (0 Bft) S-SW 208 0 min 0,000 mm 2,0 UV-I 205 W/m -3,4 C 3,4 C 0,0 km/h (0 Bft) 0,00 %
09.03.2015 11:00 4,2 C 57 % 1027,2 hPa 0,0 l/m 0,0 km/h (0 Bft) S-SW 203 0 min 0,000 mm 2,0 UV-I 224 W/m -3,5 C 4,2 C 0,0 km/h (0 Bft) 0,00 %
09.03.2015 11:15 4,6 C 54 % 1027,2 hPa 0,0 l/m 0,0 km/h (0 Bft) W-SW 253 0 min 0,000 mm 2,0 UV-I 221 W/m -3,9 C 4,6 C 0,0 km/h (0 Bft) 0,00 %
09.03.2015 11:30 4,5 C 57 % 1026,9 hPa 0,0 l/m 0,0 km/h (0 Bft) O 95 0 min 0,000 mm 3,0 UV-I 223 W/m -3,3 C 4,5 C 0,0 km/h (0 Bft) 0,00 %
09.03.2015 11:45 4,4 C 59 % 1026,8 hPa 0,0 l/m 1,4 km/h (1 Bft) SO 135 0 min 0,000 mm 3,0 UV-I 295 W/m -2,9 C 4,4 C 4,0 km/h (1 Bft) 0,00 %
09.03.2015 12:00 5,8 C 52 % 1026,3 hPa 0,0 l/m 0,0 km/h (0 Bft) S-SW 202 0 min 0,000 mm 3,0 UV-I 329 W/m -3,3 C 5,8 C 0,0 km/h (0 Bft) 0,00 %
09.03.2015 12:15 6,0 C 51 % 1026,1 hPa 0,0 l/m 0,0 km/h (0 Bft) W-SW 252 0 min 0,000 mm 3,0 UV-I 256 W/m -3,4 C 6,0 C 0,0 km/h (0 Bft) 0,00 %
09.03.2015 12:30 5,9 C 50 % 1024,6 hPa 0,0 l/m 4,0 km/h (1 Bft) O 94 0 min 0,000 mm 3,0 UV-I 235 W/m -3,7 C 5,9 C 7,9 km/h (2 Bft) 0,00 %
09.03.2015 12:45 6,3 C 48 % 1024,4 hPa 0,0 l/m 0,0 km/h (0 Bft) SO 142 0 min 0,000 mm 3,0 UV-I 254 W/m -3,9 C 6,3 C 0,0 km/h (0 Bft) 0,00 %
09.03.2015 13:00 6,8 C 45 % 1024,4 hPa 0,0 l/m 0,0 km/h (0 Bft) S 191 0 min 0,000 mm 3,0 UV-I 238 W/m -4,3 C 6,8 C 0,0 km/h (0 Bft) 0,00 %
09.03.2015 13:15 7,1 C 47 % 1024,3 hPa 0,0 l/m 0,0 km/h (0 Bft) W-SW 256 0 min 0,000 mm 3,0 UV-I 253 W/m -3,4 C 7,1 C 0,0 km/h (0 Bft) 0,00 %
09.03.2015 13:30 7,3 C 48 % 1024,1 hPa 0,0 l/m 1,4 km/h (1 Bft) O 83 0 min 0,000 mm 2,0 UV-I 238 W/m -3,0 C 7,3 C 4,0 km/h (1 Bft) 0,00 %
09.03.2015 13:45 7,2 C 49 % 1024,1 hPa 0,0 l/m 0,0 km/h (0 Bft) N-NW 347 0 min 0,000 mm 2,0 UV-I 231 W/m -2,8 C 7,2 C 0,0 km/h (0 Bft) 0,00 %
09.03.2015 14:00 7,4 C 46 % 1024,1 hPa 0,0 l/m 0,0 km/h (0 Bft) NW 310 0 min 0,000 mm 2,0 UV-I 234 W/m -3,4 C 7,4 C 0,0 km/h (0 Bft) 0,00 %
09.03.2015 14:15 7,5 C 45 % 1024,1 hPa 0,0 l/m 0,0 km/h (0 Bft) O 94 0 min 0,000 mm 2,0 UV-I 226 W/m -3,6 C 7,5 C 0,0 km/h (0 Bft) 0,00 %
09.03.2015 14:30 7,7 C 44 % 1024,0 hPa 0,0 l/m 4,0 km/h (1 Bft) O 95 0 min 0,000 mm 2,0 UV-I 210 W/m -3,8 C 7,7 C 4,0 km/h (1 Bft) 0,00 %
09.03.2015 14:45 7,5 C 44 % 1024,2 hPa 0,0 l/m 0,7 km/h (0 Bft) SO 125 0 min 0,000 mm 2,0 UV-I 197 W/m -3,9 C 7,5 C 4,0 km/h (1 Bft) 0,00 %
09.03.2015 15:00 7,6 C 43 % 1023,9 hPa 0,0 l/m 0,0 km/h (0 Bft) SO 139 0 min 0,000 mm 2,0 UV-I 189 W/m -4,2 C 7,6 C 0,0 km/h (0 Bft) 0,00 %
09.03.2015 15:15 7,8 C 45 % 1024,0 hPa 0,0 l/m 0,4 km/h (0 Bft) O-SO 115 0 min 0,000 mm 2,0 UV-I 183 W/m -3,4 C 7,8 C 4,0 km/h (1 Bft) 0,00 %
09.03.2015 15:30 7,9 C 45 % 1023,7 hPa 0,0 l/m 0,0 km/h (0 Bft) S 174 0 min 0,000 mm 2,0 UV-I 182 W/m -3,3 C 7,9 C 0,0 km/h (0 Bft) 0,00 %
09.03.2015 15:45 7,9 C 45 % 1024,2 hPa 0,0 l/m 0,0 km/h (0 Bft) SO 125 0 min 0,000 mm 1,0 UV-I 163 W/m -3,3 C 7,9 C 0,0 km/h (0 Bft) 0,00 %
09.03.2015 16:00 8,1 C 45 % 1024,0 hPa 0,0 l/m 0,0 km/h (0 Bft) S 187 15 min 0,000 mm 1,0 UV-I 177 W/m -3,1 C 8,1 C 0,0 km/h (0 Bft) 0,00 %
09.03.2015 16:15 8,1 C 47 % 1024,3 hPa 0,0 l/m 0,0 km/h (0 Bft) S 180 0 min 0,000 mm 1,0 UV-I 140 W/m -2,5 C 8,1 C 0,0 km/h (0 Bft) 0,00 %
09.03.2015 16:30 7,6 C 44 % 1024,5 hPa 0,0 l/m 1,4 km/h (1 Bft) O 94 0 min 0,000 mm 1,0 UV-I 115 W/m -3,9 C 7,6 C 4,0 km/h (1 Bft) 0,00 %
09.03.2015 16:45 7,0 C 44 % 1024,9 hPa 0,0 l/m 0,0 km/h (0 Bft) S 174 0 min 0,000 mm 1,0 UV-I 87 W/m -4,4 C 7,0 C 0,0 km/h (0 Bft) 0,00 %
09.03.2015 17:00 6,9 C 47 % 1024,7 hPa 0,0 l/m 0,0 km/h (0 Bft) SO 129 0 min 0,000 mm 1,0 UV-I 79 W/m -3,6 C 6,9 C 0,0 km/h (0 Bft) 0,00 %
09.03.2015 17:15 6,7 C 49 % 1025,0 hPa 0,0 l/m 0,0 km/h (0 Bft) S-SO 155 0 min 0,000 mm 0,0 UV-I 54 W/m -3,2 C 6,7 C 0,0 km/h (0 Bft) 0,00 %
09.03.2015 17:30 6,4 C 53 % 1025,3 hPa 0,0 l/m 0,4 km/h (0 Bft) S-SO 164 15 min 0,000 mm 0,0 UV-I 53 W/m -2,5 C 6,4 C 4,0 km/h (1 Bft) 0,00 %
09.03.2015 17:45 6,1 C 50 % 1025,4 hPa 0,0 l/m 1,8 km/h (1 Bft) S-SO 148 15 min 0,000 mm 0,0 UV-I 41 W/m -3,5 C 6,1 C 4,0 km/h (1 Bft) 0,00 %
09.03.2015 18:00 5,8 C 52 % 1025,6 hPa 0,0 l/m 0,0 km/h (0 Bft) S 173 0 min 0,000 mm 0,0 UV-I 2 W/m -3,3 C 5,8 C 0,0 km/h (0 Bft) 0,00 %
09.03.2015 18:15 5,4 C 56 % 1025,8 hPa 0,0 l/m 0,0 km/h (0 Bft) SO 144 0 min 0,000 mm 0,0 UV-I 0 W/m -2,7 C 5,4 C 0,0 km/h (0 Bft) 0,00 %
09.03.2015 18:30 5,2 C 60 % 1026,0 hPa 0,0 l/m 0,0 km/h (0 Bft) S 170 0 min 0,000 mm 0,0 UV-I 0 W/m -1,9 C 5,2 C 0,0 km/h (0 Bft) 0,00 %
09.03.2015 18:45 5,0 C 61 % 1026,2 hPa 0,0 l/m 0,4 km/h (0 Bft) O-SO 104 0 min 0,000 mm 0,0 UV-I 0 W/m -1,9 C 5,0 C 4,0 km/h (1 Bft) 0,00 %
09.03.2015 19:00 4,7 C 63 % 1026,3 hPa 0,0 l/m 0,0 km/h (0 Bft) S-SW 203 0 min 0,000 mm 0,0 UV-I 0 W/m -1,7 C 4,7 C 0,0 km/h (0 Bft) 0,00 %
09.03.2015 19:15 4,3 C 66 % 1026,3 hPa 0,0 l/m 0,0 km/h (0 Bft) S-SW 193 0 min 0,000 mm 0,0 UV-I 0 W/m -1,5 C 4,3 C 0,0 km/h (0 Bft) 0,00 %
09.03.2015 19:30 4,0 C 66 % 1026,2 hPa 0,0 l/m 0,0 km/h (0 Bft) SO 143 0 min 0,000 mm 0,0 UV-I 0 W/m -1,8 C 4,0 C 0,0 km/h (0 Bft) 0,00 %
09.03.2015 19:45 4,0 C 67 % 1026,4 hPa 0,0 l/m 0,0 km/h (0 Bft) W-SW 255 0 min 0,000 mm 0,0 UV-I 0 W/m -1,6 C 4,0 C 0,0 km/h (0 Bft) 0,00 %
09.03.2015 20:00 3,8 C 68 % 1026,5 hPa 0,0 l/m 0,0 km/h (0 Bft) S-SW 196 0 min 0,000 mm 0,0 UV-I 0 W/m -1,6 C 3,8 C 0,0 km/h (0 Bft) 0,00 %
09.03.2015 20:15 3,2 C 71 % 1026,6 hPa 0,0 l/m 0,0 km/h (0 Bft) S-SW 192 0 min 0,000 mm 0,0 UV-I 0 W/m -1,5 C 3,2 C 0,0 km/h (0 Bft) 0,00 %
09.03.2015 20:30 3,0 C 71 % 1026,7 hPa 0,0 l/m 0,0 km/h (0 Bft) S 180 0 min 0,000 mm 0,0 UV-I 0 W/m -1,7 C 3,0 C 0,0 km/h (0 Bft) 0,00 %
09.03.2015 20:45 3,0 C 70 % 1026,7 hPa 0,0 l/m 0,0 km/h (0 Bft) SW 219 0 min 0,000 mm 0,0 UV-I 0 W/m -1,9 C 3,0 C 0,0 km/h (0 Bft) 0,00 %
09.03.2015 21:00 2,8 C 72 % 1026,7 hPa 0,0 l/m 0,0 km/h (0 Bft) S 180 0 min 0,000 mm 0,0 UV-I 0 W/m -1,7 C 2,8 C 0,0 km/h (0 Bft) 0,00 %
09.03.2015 21:15 2,4 C 68 % 1026,8 hPa 0,0 l/m 0,0 km/h (0 Bft) S 189 0 min 0,000 mm 0,0 UV-I 0 W/m -2,9 C 2,4 C 0,0 km/h (0 Bft) 0,00 %
09.03.2015 21:30 2,0 C 70 % 1027,0 hPa 0,0 l/m 0,0 km/h (0 Bft) S-SW 194 0 min 0,000 mm 0,0 UV-I 0 W/m -2,9 C 2,0 C 0,0 km/h (0 Bft) 0,00 %
09.03.2015 21:45 1,9 C 71 % 1026,8 hPa 0,0 l/m 0,0 km/h (0 Bft) S 185 0 min 0,000 mm 0,0 UV-I 0 W/m -2,8 C 1,9 C 0,0 km/h (0 Bft) 0,00 %
09.03.2015 22:00 1,9 C 70 % 1026,7 hPa 0,0 l/m 0,0 km/h (0 Bft) S-SW 200 0 min 0,000 mm 0,0 UV-I 0 W/m -3,0 C 1,9 C 0,0 km/h (0 Bft) 0,00 %
09.03.2015 22:15 2,0 C 68 % 1026,2 hPa 0,0 l/m 0,0 km/h (0 Bft) SO 136 0 min 0,000 mm 0,0 UV-I 0 W/m -3,3 C 2,0 C 0,0 km/h (0 Bft) 0,00 %
09.03.2015 22:30 2,4 C 64 % 1026,4 hPa 0,0 l/m 0,0 km/h (0 Bft) S-SW 194 0 min 0,000 mm 0,0 UV-I 0 W/m -3,7 C 2,4 C 0,0 km/h (0 Bft) 0,00 %
09.03.2015 22:45 1,5 C 71 % 1026,5 hPa 0,0 l/m 0,0 km/h (0 Bft) S-SW 201 0 min 0,000 mm 0,0 UV-I 0 W/m -3,2 C 1,5 C 0,0 km/h (0 Bft) 0,00 %
09.03.2015 23:00 0,7 C 73 % 1026,8 hPa 0,0 l/m 0,0 km/h (0 Bft) S 187 0 min 0,000 mm 0,0 UV-I 0 W/m -3,6 C 0,7 C 0,0 km/h (0 Bft) 0,00 %
09.03.2015 23:15 0,8 C 72 % 1026,7 hPa 0,0 l/m 0,0 km/h (0 Bft) S-SW 196 0 min 0,000 mm 0,0 UV-I 0 W/m -3,7 C 0,8 C 0,0 km/h (0 Bft) 0,00 %
09.03.2015 23:30 0,6 C 73 % 1026,6 hPa 0,0 l/m 0,0 km/h (0 Bft) SW 224 0 min 0,000 mm 0,0 UV-I 0 W/m -3,7 C 0,6 C 0,0 km/h (0 Bft) 0,00 %
09.03.2015 23:45 0,2 C 76 % 1026,6 hPa 0,0 l/m 0,0 km/h (0 Bft) S-SW 196 0 min 0,000 mm 0,0 UV-I 0 W/m -3,5 C 0,2 C 0,0 km/h (0 Bft) 0,00 %
_ Min-Zeit 05:15 15:00 15:30 - 00:00 - - - - - - 04:30 05:15 00:00 00:00
Minimum _ -3,0 C 43 % 1023,7 hPa - 0,0 km/h (0 Bft) - - - - - - -7,8 C -3,0 C 0,0 km/h (0 Bft) 0,00 %
_ Max-Zeit 16:00 07:00 09:45 00:00 12:30 - - 06:45 00:00 11:30 12:00 19:15 16:00 12:30 00:00
Maximum _ 8,1 C 81 % 1027,6 hPa 0,0 l/m 4,0 km/h
O (1 Bft)
- - 15 min 0,000 mm 3,0 UV-I 329 W/m -1,5 C 8,1 C 7,9 km/h
O (2 Bft)
0,00 %
Durchschnitt _ 2,6 C 61 % 1025,7 hPa #0,0 l/m 0,2 km/h (0 Bft) O - #3:00 h #0,000 mm 1,8 UV-I 175 W/m -4,4 C 2,6 C 0,6 km/h (0 Bft) 0,00 %